DW3800 Weather Reports


Display with metric or nautical units.
time (UTC)temp
F
wind
direction
speed
MPH
gust
MPH
rain 1hr
in
rain 24hr
in
rain mn
in
humidity
%
barometer
mb
20260502235417 63 137 1.0 3.0 0.00 0.00 0.00 38 1013.4
20260502234914 64 125 0.0 2.0 0.00 0.00 0.00 37 1013.3
20260502234411 64 182 1.0 5.0 0.00 0.00 0.00 38 1013.4
20260502233908 64 162 1.0 2.0 0.00 0.00 0.00 37 1013.3
20260502233403 64 81 2.0 2.0 0.00 0.00 0.00 38 1013.7
20260502232901 64 127 3.0 3.0 0.00 0.00 0.00 37 1013.6
20260502232357 64 78 2.0 6.0 0.00 0.00 0.00 38 1013.3
20260502231854 64 175 2.0 3.0 0.00 0.00 0.00 37 1013.6
20260502231352 64 124 1.0 1.0 0.00 0.00 0.00 40 1013.7
20260502230850 64 214 1.0 3.0 0.00 0.00 0.00 37 1013.7
20260502230348 63 170 3.0 3.0 0.00 0.00 0.00 37 1013.7
20260502225844 64 131 2.0 6.0 0.00 0.00 0.00 38 1013.6
20260502225341 64 171 1.0 2.0 0.00 0.00 0.00 38 1013.8
20260502224838 64 184 1.0 6.0 0.00 0.00 0.00 37 1014.1
20260502224334 64 208 2.0 6.0 0.00 0.00 0.00 36 1013.9
20260502223831 64 208 3.0 6.0 0.00 0.00 0.00 37 1014.1
20260502223329 64 183 6.0 9.0 0.00 0.00 0.00 37 1014.0
20260502222827 64 173 2.0 5.0 0.00 0.00 0.00 37 1014.0
20260502222324 64 189 5.0 7.0 0.00 0.00 0.00 36 1014.0
20260502221820 64 141 2.0 3.0 0.00 0.00 0.00 37 1014.1
20260502221316 64 170 4.0 6.0 0.00 0.00 0.00 37 1014.3
20260502220814 64 180 4.0 7.0 0.00 0.00 0.00 36 1014.2
20260502220309 64 229 3.0 10.0 0.00 0.00 0.00 36 1014.3
20260502215806 64 119 2.0 10.0 0.00 0.00 0.00 37 1014.3
20260502215305 64 268 3.0 10.0 0.00 0.00 0.00 36 1014.5
20260502214800 64 205 3.0 7.0 0.00 0.00 0.00 36 1014.6
20260502214256 64 277 5.0 10.0 0.00 0.00 0.00 36 1014.5
20260502213754 64 171 4.0 13.0 0.00 0.00 0.00 36 1014.6
20260502213251 64 221 3.0 8.0 0.00 0.00 0.00 36 1014.9
20260502212750 63 167 5.0 7.0 0.00 0.00 0.00 36 1015.0
20260502212248 63 161 4.0 8.0 0.00 0.00 0.00 36 1014.9
20260502211743 64 136 3.0 9.0 0.00 0.00 0.00 36 1014.9
20260502211240 64 190 5.0 8.0 0.00 0.00 0.00 36 1015.1
20260502210737 64 124 4.0 6.0 0.00 0.00 0.00 35 1015.2
20260502210235 63 181 3.0 11.0 0.00 0.00 0.00 36 1015.1
20260502205732 64 155 6.0 14.0 0.00 0.00 0.00 35 1015.5
20260502205228 63 149 5.0 7.0 0.00 0.00 0.00 35 1015.4
20260502204726 64 200 6.0 14.0 0.00 0.00 0.00 35 1015.7
20260502204223 63 124 5.0 11.0 0.00 0.00 0.00 37 1015.9
20260502203720 62 229 4.0 8.0 0.00 0.00 0.00 36 1016.0
20260502203218 63 222 8.0 10.0 0.00 0.00 0.00 35 1016.2
20260502202712 62 158 2.0 5.0 0.00 0.00 0.00 36 1016.1
20260502202211 62 108 6.0 9.0 0.00 0.00 0.00 37 1016.2
20260502201708 62 75 5.0 10.0 0.00 0.00 0.00 36 1016.4
20260502201204 62 117 0.0 6.0 0.00 0.00 0.00 38 1016.3
20260502200700 61 177 6.0 9.0 0.00 0.00 0.00 36 1016.4
20260502200156 62 166 4.0 9.0 0.00 0.00 0.00 36 1016.7
20260502195655 62 155 3.0 9.0 0.00 0.00 0.00 36 1016.5
20260502195151 61 153 3.0 9.0 0.00 0.00 0.00 37 1016.7
20260502194648 62 218 1.0 9.0 0.00 0.00 0.00 37 1016.8
20260502194144 62 232 5.0 10.0 0.00 0.00 0.00 37 1016.7
20260502193641 61 206 7.0 9.0 0.00 0.00 0.00 36 1017.1
20260502193138 60 205 5.0 14.0 0.00 0.00 0.00 38 1017.2
20260502192633 59 173 5.0 9.0 0.00 0.00 0.00 37 1017.1
20260502192131 61 167 3.0 13.0 0.00 0.00 0.00 37 1017.5
20260502191627 61 110 3.0 9.0 0.00 0.00 0.00 40 1017.2
20260502191125 59 138 5.0 7.0 0.00 0.00 0.00 37 1017.3
20260502190623 59 220 9.0 11.0 0.00 0.00 0.00 36 1017.5
20260502190120 59 110 6.0 13.0 0.00 0.00 0.00 37 1017.5
20260502185614 59 150 5.0 11.0 0.00 0.00 0.00 37 1018.1
20260502185112 58 166 4.0 14.0 0.00 0.00 0.00 38 1017.8
20260502184608 59 134 3.0 9.0 0.00 0.00 0.00 38 1017.9
20260502184103 59 165 5.0 8.0 0.00 0.00 0.00 38 1018.1
20260502183600 58 187 7.0 9.0 0.00 0.00 0.00 37 1018.2
20260502183056 58 181 2.0 8.0 0.00 0.00 0.00 38 1018.1
20260502182552 59 221 8.0 13.0 0.00 0.00 0.00 37 1018.3
20260502182047 58 144 2.0 3.0 0.00 0.00 0.00 38 1018.4
20260502181546 57 104 0.0 6.0 0.00 0.00 0.00 39 1018.4
20260502181044 58 224 5.0 10.0 0.00 0.00 0.00 37 1018.8
20260502180540 57 142 5.0 9.0 0.00 0.00 0.00 38 1018.6
20260502170454 56 221 2.0 8.0 0.00 0.00 0.00 38 1019.7
20260502163937 55 215 7.0 10.0 0.00 0.00 0.00 40 1020.0
20260502163433 54 119 5.0 8.0 0.00 0.00 0.00 41 1019.9
20260502162931 56 93 4.0 13.0 0.00 0.00 0.00 41 1020.2
20260502162427 55 125 1.0 6.0 0.00 0.00 0.00 42 1019.8
20260502161924 55 229 5.0 15.0 0.00 0.00 0.00 40 1020.0
20260502161420 55 202 3.0 7.0 0.00 0.00 0.00 40 1020.0
20260502160919 55 167 4.0 11.0 0.00 0.00 0.00 40 1020.0
20260502160417 55 225 4.0 9.0 0.00 0.00 0.00 40 1020.3
20260502151855 53 145 4.0 6.0 0.00 0.00 0.00 43 1020.7
20260502151351 53 229 4.0 6.0 0.00 0.00 0.00 44 1020.5
20260502150849 52 304 2.0 8.0 0.00 0.00 0.00 46 1020.7
20260502150345 53 238 6.0 8.0 0.00 0.00 0.00 43 1020.8
20260502130734 45 262 3.0 7.0 0.00 0.00 0.00 59 1021.3
20260502130231 44 207 2.0 3.0 0.00 0.00 0.00 61 1021.1
20260502123717 42 149 3.0 3.0 0.00 0.00 0.00 66 1021.1
20260502123214 42 221 2.0 3.0 0.00 0.00 0.00 66 1021.3
20260502122710 42 171 2.0 3.0 0.00 0.00 0.00 66 1021.1
20260502122207 42 225 1.0 2.0 0.00 0.00 0.00 66 1021.1
20260502121705 41 214 1.0 2.0 0.00 0.00 0.00 66 1021.1
20260502121203 41 213 1.0 2.0 0.00 0.00 0.00 67 1020.8
20260502120659 41 200 1.0 2.0 0.00 0.00 0.00 68 1021.1
20260502120156 40 211 1.0 2.0 0.00 0.00 0.00 67 1021.1
20260502115654 40 235 1.0 3.0 0.00 0.00 0.00 68 1021.1
20260502115149 40 208 2.0 3.0 0.00 0.00 0.00 68 1021.1
20260502114646 40 236 1.0 2.0 0.00 0.00 0.00 68 1021.1
20260502114143 39 228 2.0 2.0 0.00 0.00 0.00 69 1021.1
20260502113640 38 232 1.0 2.0 0.00 0.00 0.00 72 1021.0
20260502113133 37 251 1.0 1.0 0.00 0.00 0.00 75 1021.0
20260502112631 37 253 1.0 1.0 0.00 0.00 0.00 73 1020.8
20260502112128 37 231 0.0 1.0 0.00 0.00 0.00 74 1021.1
20260502111625 37 225 0.0 1.0 0.00 0.00 0.00 73 1020.9
20260502111123 38 224 0.0 0.0 0.00 0.00 0.00 72 1020.8
20260502110620 38 218 1.0 2.0 0.00 0.00 0.00 70 1021.0
20260502110117 38 230 0.0 1.0 0.00 0.00 0.00 70 1021.0
20260502105615 39 225 0.0 1.0 0.00 0.00 0.00 69 1020.8
20260502105112 39 233 1.0 1.0 0.00 0.00 0.00 68 1020.8
20260502104609 39 201 1.0 2.0 0.00 0.00 0.00 68 1020.8
20260502104106 39 201 0.0 1.0 0.00 0.00 0.00 68 1020.9
20260502103604 39 212 1.0 3.0 0.00 0.00 0.00 67 1021.0
20260502103102 39 227 1.0 1.0 0.00 0.00 0.00 67 1020.8
20260502102558 39 178 1.0 1.0 0.00 0.00 0.00 66 1020.8
20260502102055 40 201 1.0 2.0 0.00 0.00 0.00 65 1020.8
20260502101553 40 209 1.0 2.0 0.00 0.00 0.00 64 1020.6
20260502101051 40 206 4.0 5.0 0.00 0.00 0.00 64 1020.7
20260502100549 41 180 1.0 3.0 0.00 0.00 0.00 63 1020.9
20260502091524 42 225 5.0 7.0 0.00 0.00 0.00 60 1020.7
20260502091021 42 223 3.0 6.0 0.00 0.00 0.00 60 1020.6
20260502090518 42 195 2.0 3.0 0.00 0.00 0.00 60 1020.4
20260502071412 42 229 2.0 2.0 0.00 0.00 0.00 59 1021.0
20260502070911 42 174 1.0 2.0 0.00 0.00 0.00 59 1021.1
20260502070408 42 155 1.0 2.0 0.00 0.00 0.00 59 1021.1
20260502065907 42 216 0.0 2.0 0.00 0.00 0.00 59 1021.1
20260502065405 43 183 2.0 2.0 0.00 0.00 0.00 59 1021.0
20260502064903 42 219 1.0 3.0 0.00 0.00 0.00 59 1021.0
20260502064400 42 203 0.0 1.0 0.00 0.00 0.00 60 1021.2
20260502063857 42 202 0.0 1.0 0.00 0.00 0.00 60 1021.2
20260502063355 42 201 0.0 1.0 0.00 0.00 0.00 60 1021.2
20260502062852 42 193 1.0 2.0 0.00 0.00 0.00 60 1021.2
20260502062349 42 219 1.0 5.0 0.00 0.00 0.00 59 1021.1
20260502061848 42 210 1.0 2.0 0.00 0.00 0.00 58 1021.1
20260502061345 42 216 0.0 2.0 0.00 0.00 0.00 58 1021.2
20260502060841 42 183 0.0 1.0 0.00 0.00 0.00 59 1021.0
20260502060336 42 197 1.0 3.0 0.00 0.00 0.00 58 1021.1
20260502055834 42 220 0.0 1.0 0.00 0.00 0.00 58 1021.2
20260502055332 42 219 0.0 2.0 0.00 0.00 0.00 57 1021.1
20260502054831 43 233 1.0 1.0 0.00 0.00 0.00 57 1021.1
20260502054328 42 230 1.0 2.0 0.00 0.00 0.00 56 1021.2
20260502053826 43 223 0.0 1.0 0.00 0.00 0.00 56 1021.3
20260502053323 43 218 1.0 2.0 0.00 0.00 0.00 56 1021.3
20260502052820 43 233 1.0 1.0 0.00 0.00 0.00 55 1021.1
20260502052318 43 177 1.0 1.0 0.00 0.00 0.00 55 1021.0
20260502051816 43 197 1.0 1.0 0.00 0.00 0.00 55 1021.2
20260502051315 42 240 0.0 1.0 0.00 0.00 0.00 55 1021.3
20260502050810 42 213 0.0 1.0 0.00 0.00 0.00 55 1021.1
20260502050307 42 221 0.0 1.0 0.00 0.00 0.00 55 1021.1
20260502045804 42 230 0.0 0.0 0.00 0.00 0.00 55 1021.2
20260502045300 42 223 0.0 1.0 0.00 0.00 0.00 54 1021.1
20260502044758 42 228 1.0 1.0 0.00 0.00 0.00 53 1021.0
20260502044254 42 233 0.0 1.0 0.00 0.00 0.00 52 1021.0
20260502043751 42 229 0.0 0.0 0.00 0.00 0.00 52 1020.9
20260502043249 43 233 0.0 1.0 0.00 0.00 0.00 51 1021.0
20260502042748 43 228 1.0 1.0 0.00 0.00 0.00 51 1021.2
20260502042245 42 243 0.0 0.0 0.00 0.00 0.00 51 1021.1
20260502041743 43 236 0.0 0.0 0.00 0.00 0.00 51 1021.0
20260502041240 43 237 0.0 0.0 0.00 0.00 0.00 50 1021.1
20260502040737 43 241 0.0 0.0 0.00 0.00 0.00 50 1021.0
20260502040234 43 242 0.0 0.0 0.00 0.00 0.00 49 1021.0
20260502035730 43 230 0.0 0.0 0.00 0.00 0.00 50 1021.3
20260502035227 43 202 1.0 1.0 0.00 0.00 0.00 49 1021.1
20260502034724 42 199 0.0 2.0 0.00 0.00 0.00 51 1021.2
20260502034222 42 284 0.0 0.0 0.00 0.00 0.00 50 1021.1
20260502033720 43 284 0.0 0.0 0.00 0.00 0.00 49 1021.2
20260502033218 42 284 0.0 0.0 0.00 0.00 0.00 51 1021.2
20260502032714 42 284 0.0 0.0 0.00 0.00 0.00 51 1021.1
20260502032210 42 284 0.0 0.0 0.00 0.00 0.00 51 1021.1
20260502031708 42 284 0.0 0.0 0.00 0.00 0.00 53 1021.1
20260502031206 43 284 0.0 0.0 0.00 0.00 0.00 52 1021.2
20260502030705 43 284 0.0 0.0 0.00 0.00 0.00 54 1021.2
20260502030202 44 285 0.0 0.0 0.00 0.00 0.00 55 1021.1
20260502025659 44 284 0.0 0.0 0.00 0.00 0.00 47 1021.1
20260502025157 44 284 0.0 0.0 0.00 0.00 0.00 48 1021.2
20260502024654 44 284 0.0 0.0 0.00 0.00 0.00 47 1021.2
20260502024153 44 284 0.0 0.0 0.00 0.00 0.00 50 1021.1
20260502023650 44 284 0.0 0.0 0.00 0.00 0.00 48 1021.0
20260502023147 44 284 0.0 0.0 0.00 0.00 0.00 47 1021.1
20260502022644 44 284 0.0 0.0 0.00 0.00 0.00 49 1021.0
20260502022141 44 284 0.0 0.0 0.00 0.00 0.00 48 1020.9
20260502021639 44 284 0.0 0.0 0.00 0.00 0.00 50 1021.1
20260502021135 44 284 0.0 0.0 0.00 0.00 0.00 49 1020.9
20260502020633 45 284 0.0 0.0 0.00 0.00 0.00 48 1021.0
20260502020129 45 284 0.0 0.0 0.00 0.00 0.00 48 1021.1
20260502015628 45 284 0.0 0.0 0.00 0.00 0.00 44 1020.9
20260502015123 45 284 0.0 0.0 0.00 0.00 0.00 46 1020.9
20260502014621 45 284 0.0 0.0 0.00 0.00 0.00 46 1020.6
20260502014118 46 268 0.0 0.0 0.00 0.00 0.00 48 1020.7
20260502013614 46 267 0.0 0.0 0.00 0.00 0.00 45 1020.6
20260502013109 46 267 0.0 0.0 0.00 0.00 0.00 45 1020.7
20260502012608 47 267 0.0 0.0 0.00 0.00 0.00 43 1020.5
20260502012106 48 267 0.0 0.0 0.00 0.00 0.00 40 1020.6
20260502011602 48 280 0.0 0.0 0.00 0.00 0.00 40 1020.6
20260502011057 49 253 0.0 1.0 0.00 0.00 0.00 39 1020.5
20260502010555 50 232 0.0 1.0 0.00 0.00 0.00 38 1020.7
20260502010051 50 214 1.0 2.0 0.00 0.00 0.00 38 1020.7
20260502005549 50 260 0.0 1.0 0.00 0.00 0.00 39 1020.6
20260502005047 50 296 0.0 1.0 0.00 0.00 0.00 38 1020.5
20260502004542 51 276 0.0 1.0 0.00 0.00 0.00 37 1020.5
20260502004039 51 242 0.0 1.0 0.00 0.00 0.00 36 1020.4
20260502003537 51 255 1.0 2.0 0.00 0.00 0.00 35 1020.5
20260502003034 51 219 1.0 1.0 0.00 0.00 0.00 36 1020.5
20260502002530 52 245 1.0 3.0 0.00 0.00 0.00 34 1020.4
20260502002027 53 224 0.0 2.0 0.00 0.00 0.00 34 1020.4
20260502001525 52 260 1.0 6.0 0.00 0.00 0.00 34 1020.2
20260502001022 52 297 5.0 6.0 0.00 0.00 0.00 34 1020.4
20260502000521 52 303 3.0 3.0 0.00 0.00 0.00 34 1020.4
20260502000017 52 269 2.0 3.0 0.00 0.00 0.00 34 1020.3